Regional Weather Roundup
Issued by NWS

Home | Current Version | Previous Version | Text Only | Print | Product List | Glossary On
Versions: 1 2 3 4 5 6 7 8 9 10 11 12 13 14 15 16 17 18 19 20 21 22 23 24 25 26 27 28 29 30 31 32 33 34 35 36 37 38 39 40 41 42 43 44 45 46 47 48
000
ASUS45 KBOU 271010
RWRCO

WEATHER ROUNDUP FOR COLORADO
NATIONAL WEATHER SERVICE DENVER/BOULDER CO
400 AM MDT THU JUN 27 2019

NOTE: "FAIR" INDICATES FEW OR NO CLOUDS BELOW 12000 FEET WITH NO
SIGNIFICANT WEATHER AND/OR OBSTRUCTIONS TO VISIBILITY.

COZ001>005-013-030-031-271100-
...NORTHWEST COLORADO...

CITY           SKY/WX    TMP DP  RH WIND       PRES   REMARKS
CRAIG          FAIR      43  38  82 W3        30.16R
HAYDEN         FAIR      50  36  58 E10       30.19S
MEEKER         FAIR      45  35  68 NE6       30.18S
RANGELY        FAIR      51  34  53 E5        30.07S
RABBIT EARS PA NOT AVBL
STEAMBOAT SPGS FAIR      45  34  65 CALM      30.23R
WALDEN         NOT AVBL
$$

COZ006>008-011-271100-
...WEST CENTRAL VALLEYS...

CITY           SKY/WX    TMP DP  RH WIND       PRES   REMARKS
GRAND JUNCTION FAIR      65  30  27 E15       30.06R
MONTROSE       FAIR      56  33  42 SE8       30.19R
EAGLE          FAIR      45  34  65 SE3       30.27R
RIFLE          FAIR      52  39  61 S5        30.14R
DELTA          FAIR      57  32  39 E8        30.14S
NUCLA          FAIR      61  27  27 E8        30.20S
$$

COZ017>023-064>068-271100-
...SOUTHWEST COLORADO...

CITY           SKY/WX    TMP DP  RH WIND       PRES   REMARKS
DURANGO        FAIR      53  30  41 N3        30.28R
CORTEZ         FAIR      49  33  54 E6        30.21R
PAGOSA SPRINGS FAIR      54  32  43 CALM      30.36S
TELLURIDE      MOCLDY    59  27  29 E8        30.42F
WOLF CREEK PAS NOT AVBL
$$

COZ009-010-012-014-032>034-037-058>063-271100-
...CENTRAL COLORADO...

CITY           SKY/WX    TMP DP  RH WIND       PRES   REMARKS
ASPEN          FAIR      45  30  55 S3        30.29R
BUENA VISTA    FAIR      43  27  51 NW5       30.35R
COPPER MTN     FAIR      54  18  24 S13G23    30.60R
BERTHOUD PASS  FAIR      43  32  65 W24G37    30.60S
COTTONWOOD PAS NOT AVBL
GUNNISON       FAIR      42  32  67 CALM      30.37R
GRANBY         NOT AVBL
KREMMLING      FAIR      39  36  87 CALM      30.32R
LEADVILLE      FAIR      38  24  57 CALM      30.44S
MONARCH PASS   FAIR      45  19  36 MISG      30.71S
SALIDA         FAIR      54  24  32 NW7       30.39S
SUNLIGHT       FAIR      46  19  34 SW14G21   30.51R
WILKERSON PASS FAIR      50  16  25 SW12G17   30.57S
$$

COZ069>075-271100-
...SAN LUIS VALLEY/SANGRE DE CRISTO MOUNTAINS...

CITY           SKY/WX    TMP DP  RH WIND       PRES   REMARKS
ALAMOSA        FAIR      56  37  49 SE8       30.33R
DEL NORTE      FAIR      49  23  36 W5        30.36R
LA VETA PASS   NOT AVBL
SAGUACHE       FAIR      45  23  42 CALM      30.37R
$$

COZ035-036-038>040-271100-
...NORTHERN COLORADO FRONT RANGE...

CITY           SKY/WX    TMP DP  RH WIND       PRES   REMARKS
DENVER INTL AP FAIR      60  39  45 SW12      30.09R
AURORA         PTCLDY    60  36  40 S9        30.11R
FRONT RANGE AP FAIR      67  36  31 SW7       30.10R
ERIE MUNI ARPT FAIR      49  40  70 SW5       30.13R
BOULDER MUN AP FAIR      68  28  22 CALM      30.08R
CENTENNIAL     FAIR      66  30  26 SW10      30.13R
BROOMFIELD     FAIR      63  32  31 E5        30.11R
FORT COLLINS   FAIR      55  48  77 CALM      30.07R
LONGMONT       FAIR      53  39  60 NW3       30.10R
$$

COZ041-046-047-076>085-087-088-271100-
...PIKES PEAK/PALMER DIVIDE AND SOUTHERN FOOTHILLS...

CITY           SKY/WX    TMP DP  RH WIND       PRES   REMARKS
COLO. SPRINGS  FAIR      64  29  26 E8        30.17R
A. F. ACADEMY  FAIR      58  23  26 N9        30.17R
SCHRIEVER AFB  NOT AVBL
CHEYENNE MTN   NOT AVBL
ELLICOTT         N/A    N/A N/A N/A E3        30.15R
FALCON         FAIR      60  22  23 N10       30.23R
FORT CARSON    FAIR      55  32  41 CALM      30.12R
LIMON          FAIR      47  44  90 NW3       30.09R
MONUMENT HILL  FAIR      52  28  40 S5        30.24R
CANON CITY     FAIR      64  30  27 W14       30.12R
WALSENBURG     NOT AVBL
TRINIDAD       FAIR      67  38  34 SW3       30.18S
$$

COZ042>045-048>051-090-091-271100-
...NORTHEAST COLORADO...

CITY           SKY/WX    TMP DP  RH WIND       PRES   REMARKS
GREELEY ARPT   FAIR      54  49  83 NW5       30.06R
AKRON          FAIR      61  49  64 W14       30.01R
BURLINGTON     FAIR      67  47  48 SW15      29.99R
WRAY           FAIR      59  48  67 S6        29.95F
YUMA           FAIR      54  43  66 W7        29.96S
STERLING       FAIR      52  50  93 NW7       29.97R
HOLYOKE        FAIR      59  54  82 CALM      29.96S
FORT MORGAN    FAIR      53  47  82 W8        30.02R
$$

COZ086-089-092>099-271100-
...SOUTHEAST COLORADO...

CITY           SKY/WX    TMP DP  RH WIND       PRES   REMARKS
PUEBLO         FAIR      52  40  63 CALM      30.06R
LA JUNTA       FAIR      74  40  29 SW16      30.03R
LAMAR          FAIR      73  46  38 SW18      29.96S
SPRINGFIELD      N/A     72  46  39 SW15G31   30.06F
$$



USA.gov is the U.S. government's official web portal to all federal, state and local government web resources and services.